This demonstration page uses our WeatherBlox Daily Observations layout. Learn more.

41.55636, -103.73856

Hourly Observations for July 1, 2016

Temp ( °F °C ) Dew Point ( °F °C ) Humidity (%) Winds ( mph kmh ) Pressure ( in mb ) Visibility ( mi km ) Precip ( " mm )
12:53 am 00:53 Cloudy 62 16.7 56 13.3 80 80 ESE 6 9 30.07 1018 10 16.0934 0 0
1:53 am 01:53 Cloudy 64 17.8 56 13.3 75 75 ESE 8 13 30.05 1018 10 16.0934 0 0
2:53 am 02:53 Cloudy 64 17.8 56 13.3 75 75 ESE 10 17 30.04 1017 10 16.0934 0 0
3:53 am 03:53 Cloudy 64 17.8 56 13.3 75 75 ESE 10 17 30.03 1017 10 16.0934 0 0
4:53 am 04:53 Mostly Cloudy 63 17.2 56 13.3 78 78 ESE 12 19 30.03 1017 10 16.0934 0 0
5:25 am 05:25 Cloudy 64 17.8 56 13.3 75 75 ESE 12 19 29.97 1015 10 16.0934 0 0
5:53 am 05:53 Cloudy with Light Rain 63 17.2 58 14.4 84 84 ESE 10 17 30.03 1017 10 16.0934 0 0.0254
6:53 am 06:53 Cloudy 64 17.8 58 14.4 81 81 ESE 12 19 30.02 1017 10 16.0934 0 0.0254
7:53 am 07:53 Cloudy 64 17.8 58 14.4 81 81 ESE 14 22 30.02 1017 10 16.0934 0 0.0254
8:53 am 08:53 Cloudy 64 17.8 58 14.4 81 81 ESE 13 20 30.02 1017 10 16.0934 0 0.0254
9:53 am 09:53 Cloudy 67 19.4 60 15.6 79 79 SE 9 15 30.01 1016 10 16.0934 0 0
10:53 am 10:53 Cloudy 72 22.2 61 16.1 68 68 SSE 15 24 29.99 1016 10 16.0934 0 0
11:53 am 11:53 Cloudy 73 22.8 61 16.1 66 66 SSE 15 24 29.97 1015 10 16.0934 0 0
12:53 pm 12:53 Cloudy 74 23.3 61 16.1 64 64 SSE 18 30 29.96 1015 10 16.0934 0 0
1:53 pm 13:53 Sunny 72 22.2 60 15.6 66 66 SE 16 26 29.94 1014 10 16.0934 0 0
2:53 pm 14:53 Mostly Cloudy with Light Rain 71 21.7 63 17.2 76 76 SE 13 20 29.92 1013 10 16.0934 0 0.0254
3:53 pm 15:53 Mostly Cloudy 74 23.3 61 16.1 64 64 SSE 15 24 29.92 1013 10 16.0934 0 0.0254
4:53 pm 16:53 Mostly Sunny 72 22.2 62 16.7 71 71 SSE 17 28 29.88 1012 10 16.0934 0 0
5:39 pm 17:39 Mostly Cloudy 71 21.7 62 16.7 73 73 ESE 15 24 29.83 1010 10 16.0934 0 0
5:53 pm 17:53 Mostly Sunny 79 26 52 11 39 39 E 15 24 29.85 1011 10 16.0934 0 0
6:53 pm 18:53 Mostly Cloudy 70 21.1 62 16.7 76 76 ESE 14 22 29.93 1014 10 16.0934 0 0
7:35 pm 19:35 Cloudy with Nearby Thunderstorms 67 19.4 55 12.8 66 66 SE 9 15 29.85 1011 10 16.0934 0 0
7:50 pm 19:50 Cloudy 66 19 54 12 64 64 NE 5 7 29.88 1012 10 16.0934 0 0
7:53 pm 19:53 Cloudy 67 19.4 55 12.8 66 66 ENE 3 6 29.95 1014 10 16.0934 0 0
8:25 pm 20:25 Cloudy with Rain 64 17.8 59 15 84 84 S 18 30 29.88 1012 2.5 4.02335 0.06 1.524
8:32 pm 20:32 Cloudy with Light Rain 64 18 61 16 88 88 S 17 28 29.83 1010 8 12.87472 0 0
8:53 pm 20:53 Cloudy with Light Rain 64 17.8 56 13.3 75 75 SE 13 20 29.91 1013 10 16.0934 0.07 1.778
9:53 pm 21:53 Clear 61 16.1 57 13.9 87 87 E 6 9 29.95 1014 10 16.0934 0 0.0254
10:53 pm 22:53 Clear 60 15.6 57 13.9 90 90 ESE 6 9 29.94 1014 10 16.0934 0 0
11:53 pm 23:53 Clear 60 15.6 57 13.9 90 90 NNE 8 13 29.93 1014 10 16.0934 0 0

Powered by AerisWeather